Regional Weather Roundup
Issued by NWS

Home | Current Version | Previous Version | Graphics & Text | Print | Product List | Glossary On
Versions: 1 2 3 4 5 6 7 8 9 10 11 12 13 14 15 16 17 18 19 20 21 22 23 24 25 26 27 28 29 30 31 32 33 34 35 36 37 38 39 40 41 42 43 44 45 46 47 48 49 50
000
ASUS43 KLSX 241607
RWRMO

WEATHER SUMMARY FOR MISSOURI
NATIONAL WEATHER SERVICE SPRINGFIELD MO
1000 AM CST FRI NOV 24 2017

NOTE: "FAIR" INDICATES FEW OR NO CLOUDS BELOW 12,000 FEET WITH NO
       SIGNIFICANT WEATHER AND/OR OBSTRUCTIONS TO VISIBILITY.
       CURRENT SKY AND/OR WEATHER CONDITIONS ARE NOT AVAILABLE FOR
       CHILLICOTHE AND FARMINGTON.

MOZ001>031-035>038-043-044-053-054-241700-
...NORTHERN AND WESTERN MISSOURI...

CITY           SKY/WX    TMP DP  RH WIND       PRES   REMARKS
KANSAS CTY INT MOSUNNY   61  37  41 SW23G30   29.65F
KANSAS C DTWN  SUNNY     63  36  36 SW20G26   29.67F
LEE`S SUMMIT   SUNNY     60  36  40 SW20      29.69F
ST JOSEPH      SUNNY     60  37  42 S17G25    29.62F
CHILLICOTHE      N/A     57  37  47 S16       29.64F
KIRKSVILLE     SUNNY     58  37  45 S16       29.65F

$$
MOZ066>068-077>081-088>096-101>105-241700-
...SOUTHWEST MISSOURI...

CITY           SKY/WX    TMP DP  RH WIND       PRES   REMARKS
SPRINGFIELD    SUNNY     57  36  45 S14       29.84F
JOPLIN         SUNNY     63  34  33 S18G29    29.83F
BRANSON        MOSUNNY   63  32  31 SW10      29.89F

$$
MOZ032>034-039>042-045>050-055>058-069>072-241700-
...CENTRAL MISSOURI...

CITY           SKY/WX    TMP DP  RH WIND       PRES   REMARKS
COLUMBIA       SUNNY     58  36  43 S13       29.77F
JEFFERSON CITY SUNNY     57  33  40 S8        29.79F
ROLLA          SUNNY     59  33  37 S15       29.83F
SEDALIA        SUNNY     60  37  42 S22       29.75F
WHITEMAN AFB   SUNNY     60  36  41 SW18      29.69F
WARRENSBURG    SUNNY     57  34  41 S13       29.73F
OSAGE BEACH    SUNNY     63  35  35 S13G21    29.81F

$$
MOZ051-052-059>065-241700-
...EAST CENTRAL MISSOURI...

CITY           SKY/WX    TMP DP  RH WIND       PRES   REMARKS
ST LOUIS INTL  MOSUNNY   56  34  43 S8        29.82F
SPIRIT OF STL  SUNNY     58  37  45 CALM      29.80F
ST CHARLES     SUNNY     54  34  46 S8        29.81F

$$
MOZ072>076-082>087-097>100-106>115-241700-
...SOUTH CENTRAL AND SOUTHEAST MISSOURI...

CITY           SKY/WX    TMP DP  RH WIND       PRES   REMARKS
CAPE GIRARDEAU SUNNY     47  32  56 S8        29.94S
FARMINGTON     SUNNY     55  33  43 S9        29.88F
POPLAR BLUFF   MOSUNNY   46  34  62 S8        29.94F
WEST PLAINS    SUNNY     58  32  37 SW8       29.91S

$$



USA.gov is the U.S. government's official web portal to all federal, state and local government web resources and services.